This demonstration page uses our WeatherBlox Daily Observations layout. Learn more.

Left ArrowRight Arrow

31.84235, -102.49876

Hourly Observations for July 12, 2022

Temp ( °F °C ) Dew Point ( °F °C ) Humidity (%) Winds ( mph kmh ) Pressure ( in mb ) Visibility ( mi km ) Precip ( " mm )
12:53 am 00:53 Clear 87 30.6 45 7.2 23 23 E 9 15 29.79 1009 10 16 0.00 0.00
1:53 am 01:53 Clear 85 29.4 47 8.3 27 27 E 9 15 29.80 1009 10 16 0.00 0.00
2:53 am 02:53 Clear 85 29.4 50 10 30 30 ESE 13 20 29.81 1009 10 16 0.00 0.00
3:53 am 03:53 Clear 83 28.3 52 11.1 34 34 E 8 13 29.80 1009 10 16 0.00 0.00
4:53 am 04:53 Clear 79 26.1 53 11.7 41 41 NE 7 11 29.80 1009 10 16 0.00 0.00
5:53 am 05:53 Clear 77 25 52 11.1 42 42 NNE 10 17 29.81 1009 10 16 0.00 0.00
6:53 am 06:53 Sunny 77 25 52 11.1 42 42 N 17 28 29.85 1011 10 16 0.00 0.00
7:53 am 07:53 Sunny 80 26.7 56 13.3 44 44 NNE 16 26 29.87 1012 10 16 0.00 0.00
8:53 am 08:53 Sunny 82 27.8 59 15 46 46 NNE 20 31 29.88 1012 7 11 0.00 0.00
9:53 am 09:53 Sunny 87 30.6 58 14.4 37 37 NE 21 33 29.90 1012 10 16 0.00 0.00
10:53 am 10:53 Sunny 91 32.8 59 15 34 34 ENE 18 30 29.89 1012 10 16 0.00 0.00
11:53 am 11:53 Sunny 94 34.4 58 14.4 30 30 ENE 20 31 29.89 1012 10 16 0.00 0.00
12:53 pm 12:53 Sunny 97 36.1 56 13.3 25 25 E 18 30 29.88 1012 10 16 0.00 0.00
1:53 pm 13:53 Sunny 97 36.1 55 12.8 24 24 ENE 15 24 29.87 1012 10 16 0.00 0.00
2:53 pm 14:53 Mostly Sunny 97 36.1 55 12.8 24 24 ENE 14 22 29.85 1011 10 16 0.00 0.00
3:53 pm 15:53 Mostly Sunny 99 37.2 54 12.2 22 22 E 12 19 29.83 1010 10 16 0.00 0.00
4:53 pm 16:53 Mostly Sunny 100 37.8 53 11.7 21 21 ENE 14 22 29.83 1010 10 16 0.00 0.00
5:53 pm 17:53 Sunny 98 36.7 52 11.1 21 21 VRB 6 9 29.82 1010 10 16 0.00 0.00
6:53 pm 18:53 Sunny 99 37.2 52 11.1 21 21 E 12 19 29.81 1009 10 16 0.00 0.00
7:53 pm 19:53 Sunny 97 36.1 51 10.6 21 21 ENE 14 22 29.81 1010 10 16 0.00 0.00
8:21 pm 20:21 Mostly Cloudy 92 33.3 59 15 33 33 SE 18 30 29.75 1007 8 13 0.00 0.00
8:53 pm 20:53 Sunny 90 32.2 58 14.4 34 34 SE 13 20 29.84 1011 9 14 0.00 0.00
9:53 pm 21:53 Clear 89 31.7 60 15.6 38 38 ESE 10 17 29.85 1011 10 16 0.00 0.00
10:53 pm 22:53 Clear 87 30.6 62 16.7 43 43 E 8 13 29.88 1012 10 16 0.00 0.00
11:53 pm 23:53 Clear 87 30.6 62 16.7 43 43 ESE 10 17 29.90 1013 10 16 0.00 0.00

Powered by AerisWeather